This demonstration page uses our WeatherBlox Daily Observations layout. Learn more.

Left ArrowRight Arrow

39.01783, -85.05884

Hourly Observations for April 7, 2019

Temp ( °F °C ) Dew Point ( °F °C ) Humidity (%) Winds ( mph kmh ) Pressure ( in mb ) Visibility ( mi km ) Precip ( " mm )
12:52 am 00:52 Clear 54 12.2 44 6.7 69 69 E 8 13 30.09 1019 9 14 N/A
1:52 am 01:52 Mostly Cloudy 55 12.8 44 6.7 67 67 E 7 11 30.08 1019 10 16 N/A
2:52 am 02:52 Mostly Cloudy 55 12.8 44 6.7 67 67 E 8 13 30.06 1018 10 16 N/A
3:52 am 03:52 Mostly Cloudy 55 12.8 44 6.7 67 67 ESE 6 9 30.04 1017 10 16 N/A
4:52 am 04:52 Cloudy 55 12.8 44 6.7 67 67 ESE 5 7 30.02 1017 10 16 N/A
5:52 am 05:52 Mostly Cloudy 55 12.8 45 7.2 69 69 SE 9 15 30.01 1016 10 16 N/A
6:52 am 06:52 Cloudy 55 12.8 46 7.8 72 72 SSE 7 11 30.01 1016 10 16 N/A
7:52 am 07:52 Cloudy 55 12.8 47 8.3 74 74 S 8 13 30.03 1017 10 16 N/A
8:52 am 08:52 Cloudy 57 13.9 50 10 78 78 SSE 9 15 30.00 1016 10 16 N/A
9:52 am 09:52 Cloudy with Light Rain 60 15.6 53 11.7 78 78 SSW 9 15 30.00 1016 9 14 N/A
10:52 am 10:52 Cloudy 59 15 56 13.3 90 90 S 8 13 29.99 1016 10 16 0.01 0.25
11:52 am 11:52 Mostly Cloudy 66 18.9 60 15.6 81 81 S 14 22 29.97 1015 10 16 N/A
12:52 pm 12:52 Mostly Cloudy 72 22.2 60 15.6 66 66 S 21 33 29.96 1015 10 16 N/A
1:52 pm 13:52 Cloudy 70 21.1 59 15 68 68 SSW 14 22 29.95 1014 10 16 N/A
2:52 pm 14:52 Cloudy with Light Rain 68 20 59 15 73 73 SSW 12 19 29.93 1014 10 16 N/A
3:50 pm 15:50 Cloudy 66 19 61 16 83 83 SSW 16 26 29.92 1013 10 16 N/A
3:52 pm 15:52 Cloudy 67 19.4 60 15.6 79 79 S 18 30 29.91 1013 10 16 N/A
4:52 pm 16:52 Cloudy with Light Rain 66 18.9 60 15.6 81 81 SSW 14 22 29.92 1013 8 13 N/A
5:52 pm 17:52 Cloudy with Light Rain 65 18.3 60 15.6 84 84 SSW 12 19 29.91 1013 5 8 N/A
5:56 pm 17:56 Cloudy with Light Rain 65 18.3 60 15.6 84 84 SSW 13 20 29.91 1013 3 4 N/A
6:52 pm 18:52 Cloudy with Light Rain 64 17.8 61 16.1 90 90 SW 7 11 29.92 1013 8 13 0.02 0.51
7:52 pm 19:52 Mostly Cloudy 64 17.8 61 16.1 90 90 SSW 12 19 29.88 1012 10 16 N/A
8:13 pm 20:13 Partly Cloudy 64 17.8 60 15.6 87 87 SSW 9 15 29.87 1012 10 16 N/A
8:52 pm 20:52 Partly Cloudy 64 17.8 60 15.6 87 87 SSW 6 9 29.88 1012 10 16 N/A
9:52 pm 21:52 Partly Cloudy 63 17.2 59 15 87 87 SSW 7 11 29.93 1013 10 16 N/A
10:52 pm 22:52 Mostly Cloudy 63 17.2 58 14.4 84 84 SSW 9 15 29.92 1013 10 16 N/A
11:52 pm 23:52 Cloudy 63 17.2 57 13.9 81 81 SSW 10 17 29.91 1013 10 16 N/A

Powered by AerisWeather